This demonstration page uses our WeatherBlox Daily Observations layout. Learn more.

Left ArrowRight Arrow

Hourly Observations for September 1, 2015

Temp ( °F °C ) Dew Point ( °F °C ) Humidity (%) Winds ( mph kmh ) Pressure ( in mb ) Visibility ( mi km ) Precip ( " mm )
12:53 am 00:53 Clear 72 22.2 45 7.2 38 38 Calm 29.81 1009 10 16 0.00 0.00
1:53 am 01:53 Clear 69 20.6 46 7.8 44 44 Calm 29.81 1010 10 16 0.00 0.00
2:53 am 02:53 Clear 69 20.6 46 7.8 44 44 N 3 6 29.82 1010 10 16 0.00 0.00
3:53 am 03:53 Clear 68 20 46 7.8 45 45 N 3 6 29.82 1010 10 16 0.00 0.00
4:53 am 04:53 Clear 66 18.9 46 7.8 49 49 Calm 29.82 1010 10 16 0.00 0.00
5:53 am 05:53 Clear 64 17.8 47 8.3 54 54 Calm 29.82 1010 10 16 0.00 0.00
6:53 am 06:53 Sunny 63 17 46 8 56 56 Calm N/A 2 3 0.00 0.00
7:53 am 07:53 Sunny 67 19.4 45 7.2 45 45 Calm 29.84 1010 10 16 0.00 0.00
8:53 am 08:53 Sunny 74 23.3 46 7.8 37 37 Calm 29.84 1010 10 16 0.00 0.00
9:53 am 09:53 Sunny 79 26.1 47 8.3 32 32 Calm 29.83 1010 10 16 0.00 0.00
10:53 am 10:53 Sunny 84 28.9 47 8.3 27 27 VRB 3 6 29.83 1010 10 16 0.00 0.00
11:53 am 11:53 Sunny 86 30 48 9 27 27 SE 3 6 N/A 2 3 0.00 0.00
12:53 pm 12:53 Sunny 90 32.2 47 8.3 23 23 VRB 6 9 29.79 1009 10 16 0.00 0.00
1:53 pm 13:53 Sunny 92 33.3 45 7.2 20 20 SW 9 15 29.78 1008 10 16 0.00 0.00
2:53 pm 14:53 Sunny 95 35 41 5 15 15 S 12 19 29.76 1008 10 16 0.00 0.00
3:53 pm 15:53 Sunny 94 34.4 39 3.9 15 15 S 16 26 29.74 1007 10 16 0.00 0.00
4:53 pm 16:53 Sunny 94 34.4 39 3.9 15 15 S 16 26 29.72 1006 10 16 0.00 0.00
5:53 pm 17:53 Sunny 94 34.4 40 4.4 15 15 SSW 12 19 29.72 1006 10 16 0.00 0.00
6:53 pm 18:53 Sunny 90 32.2 46 7.8 22 22 SSE 12 19 29.72 1006 10 16 0.00 0.00
7:53 pm 19:53 Clear 86 30 49 9.4 28 28 S 5 7 29.72 1007 10 16 0.00 0.00
8:53 pm 20:53 Clear 81 27.2 49 9.4 33 33 S 5 7 29.74 1007 10 16 0.00 0.00
9:53 pm 21:53 Clear 83 28.3 49 9.4 31 31 SW 9 15 29.77 1008 10 16 0.00 0.00
10:53 pm 22:53 Clear 82 27.8 47 8.3 29 29 S 14 22 29.76 1008 10 16 0.00 0.00
11:53 pm 23:53 Clear 80 26.7 44 6.7 28 28 S 14 22 29.77 1008 10 16 0.00 0.00

Powered by AerisWeather